User: anonymous   Login
Location: Unspecified
(0.0000°N, 0.0000°E)
Time: 07:56:20
(UTC+00:00)
Language:

COSMOS 2454 - Orbit

View from above orbital plane
View from above orbital plane
View from above satellite
View from above satellite

Ground track
Ground track

The orbit data is extracted from the following two-line orbital elements,

1 35635U 09039A   19083.11579558  .00000031  00000-0  12640-4 0  9996
2 35635  82.9546 229.8250 0017797 257.7240 102.1931 13.89637359490626
Epoch (UTC): 24 March 2019 02:46:44
Eccentricity: 0.0017797
inclination: 82.9546°
perigee height: 917 km
apogee height: 943 km
right ascension of ascending node: 229.8250°
argument of perigee: 257.7240°
revolutions per day: 13.89637359
mean anomaly at epoch: 102.1931°
orbit number at epoch: 49062

The dashed part of the orbit path shows where the satellite is in the earth's shadow,  

DLR